Погода в Русском

Россия / Ставропольский край     43°49′42″N   44°33′25″E
темп.,
°C
ветер,
м/с
пор.,
м/с
влажн.,
%
обл.,
%
осадки,
мм/ч
давл.,
гПа
погр.,
м
10 апреля, сб
сб1000:00+7сз4774100 0.2 1018561
03:00+7зсз4775100 0.2 1019598
06:00+6зсз4775100 0.0 1019536
09:00+8зсз4572100 0.0 1019728
12:00+10сз4467100 0.0 1019863
15:00+11ссз3365100 0.0 10191056
18:00+10ссз2472100 0.0 1020435
21:00+9ссз2377100 0.0 1021153
11 апреля, вс
вс1100:00+8сз2281100 0.0 102059
03:00+7с1184100 0.0 102021
06:00+6ссв118877 0.0 101929
09:00+10св2270100 0.0 1019625
12:00+13в2363100 0.0 10171212
15:00+14зсз1161100 0.0 1017840
18:00+12з3571100 0.0 1016122
21:00+10з4679100 0.0 1016132
12 апреля, пн
пн1200:00+8з348430 0.0 101667
03:00+8зюз338696 0.0 101646
06:00+8з3686100 0.0 1017134
09:00+14зсз5765100 0.0 1018730
12:00+16сз6665100 0.0 10181264
15:00+13сз5573100 0.1 1020718
18:00+11зсз4676100 0.0 1021410
21:00+10з2579100 0.0 1021281
13 апреля, вт
вт1300:00+10зюз2381100 0.0 1021140
03:00+9зюз3682100 0.0 1020248
06:00+9зюз3592100 1.1 1020217
09:00+10з2486100 2.6 1021285
12:00+11сз2380100 0.0 1021391
15:00+12сз3481100 0.0 1021480
18:00+10зсз4789100 0.1 1021344
21:00+9зсз4894100 1.8 1021466
14 апреля, ср
ср1400:00+9з4894100 2.9 1020523
03:00+9з61094100 7.8 1019523
06:00+9з4991100 0.1 1018614
09:00+10з4687100 0.1 1019590
12:00+14зсз456996 0.0 10181059
15:00+14зсз456487 0.1 10181147
18:00+13з2371100 0.0 101848
21:00+10сз227877 0.0 101828